EHI
0 0 0 0 0 0 0 0 0 0 0 0 0 0 0 0 0 0 0 0 0 1 5 22 42 42 26 11 3 0 0 0 0 0 0 0 0 0 0 0 0 0 0 0 0 0 0 0 0
0 0 0 0 0 0 0 0 0 0 0 0 0 0 0 0 0 0 0 0 1 3 7 26 52 57 41 21 8 2 0 0 0 0 0 0 0 0 0 0 0 0 0 0 0 0 0 0 0
0 0 0 0 0 0 0 0 0 0 0 0 0 0 0 0 0 0 0 0 1 4 9 32 64 75 62 40 19 6 1 0 0 0 0 0 0 0 0 0 0 0 0 0 0 0 0 0 0
0 0 0 0 0 0 0 0 0 0 0 0 0 0 0 0 1 1 0 0 1 5 13 38 70 84 77 61 36 15 4 0 0 0 0 0 0 0 0 0 0 0 0 0 0 0 0 0 0
0 0 0 0 0 0 0 0 0 0 0 0 0 0 0 2 3 3 1 0 4 12 26 49 76 87 85 74 53 28 10 2 0 0 0 0 0 0 0 0 0 0 0 0 0 0 0 0 0
0 0 0 0 0 0 0 0 0 0 0 0 0 0 0 2 5 3 1 0 5 19 37 58 78 86 86 79 63 40 17 5 1 1 0 0 0 0 0 0 0 0 0 0 0 0 0 0 0
0 0 0 0 0 0 0 0 0 0 0 0 0 0 0 1 2 2 1 1 4 14 31 48 64 74 76 72 62 43 20 6 3 2 1 0 0 0 1 1 1 0 0 0 0 0 0 0 0
0 0 0 0 0 0 0 0 0 0 1 1 0 0 0 0 1 4 8 8 6 7 16 29 42 51 55 54 51 39 20 6 3 3 2 1 0 0 1 2 1 0 0 0 0 1 2 1 1
0 0 0 0 0 0 0 0 0 3 6 6 2 0 0 1 6 14 24 26 19 12 13 20 26 29 32 34 33 27 15 6 3 2 2 1 0 0 0 1 1 0 1 3 6 9 8 4 3
0 0 0 0 0 0 0 0 0 4 11 9 3 0 1 3 9 21 37 46 37 21 15 17 20 20 21 20 15 10 6 3 1 1 1 1 0 0 0 0 0 0 1 5 12 17 14 6 3
0 0 0 0 0 0 0 0 0 3 6 6 3 1 1 2 7 18 37 55 51 30 16 14 16 16 13 8 4 2 1 1 0 0 0 0 0 0 0 0 0 0 3 8 15 19 15 6 2
0 0 0 0 0 0 0 0 0 0 1 2 3 2 1 1 4 11 29 53 60 44 23 13 12 10 5 1 0 1 0 0 0 0 0 0 0 0 0 0 0 3 11 20 25 22 14 5 1
0 0 0 0 0 0 0 0 0 0 2 4 6 4 1 1 3 7 23 50 67 63 46 28 17 9 5 5 4 3 2 1 0 0 0 1 2 2 2 1 2 8 22 36 40 30 15 5 1
0 0 0 0 0 0 0 0 0 1 5 10 11 8 5 4 5 8 22 47 70 77 70 57 40 26 23 27 26 24 22 17 11 8 8 9 14 18 15 9 10 20 36 49 49 37 20 9 7
0 0 0 0 0 0 0 0 0 0 6 15 20 18 17 16 16 19 30 50 71 81 83 79 68 58 55 58 61 61 57 46 35 30 29 33 42 48 44 36 36 45 57 63 57 43 28 19 17
0 0 0 0 0 0 0 0 0 1 7 20 30 35 39 42 43 45 53 64 75 83 85 85 82 79 78 79 81 82 75 63 49 43 47 56 67 74 75 72 71 74 78 76 65 49 35 27 23
0 0 0 0 0 0 0 0 0 2 10 25 39 52 65 72 73 75 77 78 80 82 81 80 79 80 82 83 83 81 72 59 46 38 40 49 63 76 86 90 90 88 84 77 65 50 37 27 20
0 0 0 0 0 0 0 0 0 3 11 28 48 67 82 88 86 85 82 78 75 74 72 72 72 74 76 77 78 77 69 58 48 37 26 27 40 59 74 82 85 83 77 69 59 47 35 25 18
0 0 0 0 0 0 0 0 0 2 10 30 56 77 87 87 81 74 67 62 60 60 60 62 64 65 66 66 64 63 60 56 53 45 29 20 25 39 51 60 69 73 69 62 54 44 34 25 20
0 0 0 0 0 0 0 0 0 1 10 31 58 76 81 76 67 57 46 40 40 40 40 43 45 45 44 42 39 37 37 40 43 40 30 20 20 26 33 42 54 62 61 57 51 45 36 27 21
0 0 0 0 0 0 0 0 0 2 11 26 46 59 60 54 46 37 27 21 20 19 18 19 21 21 19 17 16 16 17 21 25 24 19 15 16 22 28 35 43 49 51 51 49 46 39 26 17
0 0 0 0 0 0 0 0 0 3 9 18 26 31 30 27 23 16 11 8 7 7 7 9 11 10 7 6 7 8 9 11 11 11 10 8 10 17 22 27 33 38 41 41 39 37 31 20 12
0 0 0 0 0 0 0 0 0 2 5 9 11 10 9 8 6 4 2 2 3 5 8 12 13 10 7 5 5 4 5 5 5 6 5 4 4 7 11 17 23 29 29 26 22 19 16 10 6
0 0 0 0 0 0 0 0 0 1 2 3 3 2 1 1 0 0 0 1 3 6 10 13 13 10 8 6 4 3 1 1 1 2 1 1 1 2 4 9 14 17 17 14 10 6 4 2 1
0 0 0 0 0 0 0 0 0 0 0 0 0 0 0 0 1 1 1 1 3 5 8 11 11 10 8 6 4 2 1 0 0 0 0 0 0 0 1 3 5 6 7 7 5 1 0 0 0
0 0 0 0 0 0 0 0 0 0 0 0 0 0 0 0 1 2 2 2 2 3 5 8 9 8 7 5 2 1 0 0 0 0 0 0 0 0 0 0 0 1 2 3 2 0 0 0 0
0 0 0 0 0 0 0 0 0 0 0 0 0 0 0 0 1 1 2 1 0 1 2 5 6 6 5 3 1 0 0 0 0 0 0 0 0 0 0 0 0 0 0 1 0 0 0 0 0
0 0 0 0 0 0 0 0 0 0 0 0 0 0 0 0 0 0 0 0 0 0 1 2 3 2 2 1 1 1 0 0 0 0 0 0 0 0 0 0 0 0 0 0 0 0 0 0 0
0 0 0 0 0 0 0 0 0 0 0 0 0 0 0 0 0 0 0 0 0 0 0 1 1 0 1 1 2 2 1 0 0 0 0 0 0 0 0 0 0 0 0 0 0 0 0 0 0
0 0 0 0 0 0 0 0 0 0 0 0 0 0 0 0 0 0 0 0 0 0 0 0 0 0 1 2 3 2 1 0 0 0 0 0 0 0 0 0 0 0 0 0 0 0 0 0 0
Wind_Speed
2 4 3 1 1 3 2 1 4 6 6 7 10 10 8 5 3 4 5 17 19 17 14 18 20 20 18 17 15 15 14 13 13 13 12 12 11 11 10 9 9 8 8 8 8 8 8 7 7
2 3 2 1 3 3 3 1 5 5 7 10 10 9 7 6 8 10 8 17 20 17 12 15 21 20 19 17 16 15 14 13 13 12 12 11 10 10 9 8 7 7 7 7 7 7 7 6 6
3 2 2 3 2 1 4 3 3 2 5 7 6 5 5 7 9 7 11 19 18 15 11 15 22 20 19 18 16 15 14 13 13 12 11 11 10 9 9 8 7 6 6 6 6 6 6 6 6
0 2 3 4 3 3 3 6 5 3 5 7 8 6 4 4 7 12 19 19 18 13 10 15 21 20 19 18 17 16 15 14 13 13 12 11 10 10 9 9 8 7 7 6 6 6 6 6 7
3 3 4 2 3 5 4 6 5 2 3 6 9 6 4 4 17 22 20 19 18 12 10 12 19 19 19 18 17 16 15 14 14 13 12 12 11 10 10 10 9 9 8 8 7 7 7 7 8
2 4 3 0 1 4 7 7 4 0 7 9 9 6 3 10 18 19 18 16 17 16 12 11 19 19 18 18 17 16 15 15 14 13 13 12 11 11 11 11 11 10 9 9 9 9 9 9 9
3 2 1 2 4 3 7 6 6 4 7 8 10 7 5 10 15 17 16 15 14 14 12 9 11 14 17 17 17 16 15 14 14 13 13 12 12 12 12 12 12 12 12 12 12 12 12 11 10
4 3 2 2 2 4 6 4 6 7 6 9 9 11 8 11 14 15 14 13 13 12 11 9 9 8 9 11 16 16 16 15 15 14 14 14 13 13 14 12 13 14 14 15 15 14 14 13 12
2 4 2 3 3 4 5 1 3 2 5 4 4 7 11 15 17 16 12 10 10 11 9 9 9 8 8 8 13 14 15 15 15 13 15 14 7 7 8 13 15 17 17 17 17 16 15 14 13
4 3 7 6 3 4 4 2 1 5 8 6 7 7 14 15 17 17 15 15 13 13 12 10 10 10 8 9 7 5 7 7 8 6 8 6 6 6 9 11 18 19 19 19 18 17 15 12 6
4 6 7 7 4 3 3 4 3 7 4 8 13 15 16 14 14 14 15 17 16 15 14 12 11 10 10 6 5 4 4 4 6 8 8 6 5 5 7 5 9 12 15 11 11 11 8 7 6
4 7 6 5 4 4 3 4 3 2 7 11 18 20 18 16 15 15 15 16 14 14 15 13 12 11 10 7 5 6 5 5 6 8 9 7 5 6 6 6 6 6 6 7 7 5 7 8 9
4 5 5 5 6 5 4 4 4 3 4 10 14 16 17 18 16 14 13 15 15 15 15 15 13 13 11 8 6 7 7 7 8 8 9 10 8 8 8 6 6 7 6 7 7 7 8 8 9
5 5 6 6 7 4 3 6 4 5 4 10 13 13 14 16 16 12 10 11 15 16 15 15 15 14 11 9 8 7 7 7 7 7 10 12 10 9 8 7 6 6 7 7 7 8 8 7 7
6 6 9 7 5 4 3 6 6 6 4 8 11 10 9 8 10 12 12 10 11 12 12 14 15 13 12 11 10 7 7 6 7 8 10 11 11 11 9 8 7 7 7 7 6 7 5 5 6
6 5 6 9 5 7 4 5 7 3 7 6 7 8 7 5 6 6 5 4 4 4 5 8 9 9 10 9 7 5 5 5 5 5 6 10 12 12 9 8 7 7 5 5 5 4 4 4 4
5 3 7 11 6 2 6 3 3 4 9 8 8 9 10 10 10 9 9 7 6 5 5 4 2 4 6 6 5 4 4 4 4 3 4 6 10 12 9 8 6 5 4 4 4 3 3 3 4
5 5 4 6 7 6 6 2 2 4 8 8 9 10 13 14 11 11 11 10 8 7 6 6 3 1 2 3 3 3 4 5 4 4 5 6 6 8 7 6 5 4 3 3 3 3 2 3 3
5 3 4 4 6 7 6 4 5 5 4 6 8 11 13 11 9 10 11 10 9 7 7 6 5 3 1 1 2 3 4 4 4 5 6 6 6 5 4 4 4 5 5 5 4 3 4 4 3
2 4 4 4 6 5 4 4 5 6 2 3 8 10 11 10 9 9 9 9 8 7 6 5 4 3 2 1 2 2 3 3 4 4 5 6 6 5 5 5 5 5 5 5 6 5 4 4 4
3 3 3 2 4 4 4 7 7 7 7 7 8 8 9 10 9 7 7 7 6 6 5 4 4 3 2 1 0 2 2 3 3 4 4 5 6 6 6 7 6 6 6 6 7 7 7 5 4
2 1 3 5 6 4 4 3 7 3 6 6 5 5 5 6 7 6 6 6 6 6 6 6 5 5 4 3 2 0 1 3 4 4 4 6 6 6 6 6 6 7 6 6 7 7 6 6 5
1 3 5 5 3 4 4 1 6 2 3 1 3 4 5 5 6 7 7 7 6 6 5 5 5 4 3 2 2 1 1 3 3 4 5 6 5 6 6 6 5 5 5 6 7 6 7 6 6
3 7 9 7 5 2 3 1 6 3 5 4 3 5 6 6 6 6 6 5 4 3 3 4 4 3 2 2 1 0 2 3 5 6 6 5 4 4 5 5 5 5 5 6 6 6 6 6 5
6 7 6 7 6 5 4 1 7 6 6 8 9 8 7 7 6 6 6 6 4 3 2 2 3 2 2 1 1 1 1 2 4 5 6 6 5 5 6 5 5 5 5 6 6 6 6 6 5
1 8 6 2 3 6 4 1 6 4 7 8 7 7 6 7 6 7 7 5 4 4 4 3 3 2 2 1 1 1 1 2 2 4 5 6 5 6 6 6 5 6 6 6 6 5 6 5 5
0 1 8 7 0 2 4 2 4 3 4 5 6 6 6 6 6 5 5 5 5 5 5 4 4 3 2 1 1 1 2 2 3 4 4 5 5 6 6 6 6 5 5 5 5 5 6 5 5
3 3 5 4 2 2 6 4 4 6 6 5 6 6 4 3 4 5 5 5 5 5 5 4 5 4 3 2 2 1 1 2 2 3 5 6 6 6 6 5 4 4 4 4 4 4 4 5 4
2 1 4 4 5 5 3 7 6 6 4 4 3 1 1 2 2 3 4 5 6 5 5 4 4 4 4 3 3 2 1 1 2 3 4 5 5 6 6 5 4 3 2 2 2 2 3 4 3
1 2 5 4 4 5 4 7 8 3 5 6 6 6 5 4 2 1 3 4 4 5 4 4 4 5 5 4 4 3 2 1 1 2 4 5 5 5 5 5 4 4 3 2 2 2 3 4 5
Wind_Direction
241 194 154 111 54 37 333 351 80 64 55 70 79 84 87 78 135 148 129 138 137 145 152 153 153 153 150 147 145 143 140 138 136 135 134 133 132 131 131 130 128 126 125 125 126 126 124 122 121
264 198 144 63 60 25 319 358 88 101 129 112 86 86 85 81 94 108 124 142 141 145 149 153 155 154 153 150 149 148 148 146 146 146 147 147 147 147 146 145 143 142 141 142 144 144 142 143 145
250 199 112 54 43 236 288 312 347 115 133 112 89 63 82 116 115 123 144 142 139 144 148 157 156 156 155 154 154 155 155 155 156 157 159 160 162 163 164 165 166 165 165 167 168 167 166 169 175
259 53 43 50 328 270 258 291 309 335 81 85 99 70 52 117 129 135 140 143 141 144 148 158 157 157 157 157 159 161 162 164 166 167 169 172 175 179 181 181 184 186 187 189 191 192 191 193 199
92 72 52 27 301 307 298 293 305 315 93 91 92 83 33 39 119 133 143 147 146 145 150 158 158 159 159 160 162 165 168 171 174 175 177 181 185 190 192 192 195 199 202 206 208 210 212 213 216
57 71 69 140 254 295 290 281 297 134 117 113 103 102 68 121 129 142 147 150 150 150 153 159 162 162 163 164 166 170 174 177 180 182 185 189 193 195 196 198 202 207 213 218 221 222 222 223 225
132 104 202 207 201 215 255 247 221 194 135 142 129 107 116 146 146 149 148 147 148 152 157 162 165 167 168 170 171 174 178 182 185 189 192 195 198 200 202 205 209 213 219 223 226 228 230 231 231
151 101 328 285 202 217 238 226 208 165 140 130 128 133 159 171 149 147 144 144 147 155 162 165 165 166 169 174 179 181 184 188 192 196 199 202 205 208 211 212 217 220 224 228 230 232 233 233 233
113 79 265 247 245 265 284 304 252 125 96 82 105 145 158 151 140 141 139 141 150 160 169 171 171 170 170 175 186 187 190 196 198 202 206 208 212 215 219 223 223 226 229 231 233 235 237 237 238
112 158 232 229 246 272 307 350 342 79 79 78 80 100 135 144 145 148 153 160 165 170 177 179 179 178 176 186 186 190 197 201 202 205 211 209 208 217 224 231 231 231 233 234 235 237 239 241 240
189 214 244 264 265 291 334 349 25 102 126 160 151 151 153 153 156 158 162 170 174 176 179 181 183 182 184 194 182 193 204 205 212 215 217 217 216 223 230 229 238 237 237 235 238 237 235 234 235
250 267 270 273 312 326 315 332 350 124 185 179 163 160 161 164 170 172 169 173 174 176 184 181 183 185 191 194 190 192 203 207 214 220 220 217 220 224 227 230 229 226 226 224 226 228 231 235 239
265 271 300 318 338 316 317 314 311 298 175 163 162 164 170 172 178 182 175 171 173 180 185 183 184 188 190 192 195 199 207 212 214 217 219 218 220 225 227 229 228 226 219 217 220 226 231 235 240
279 295 311 312 316 309 317 310 322 272 168 158 165 176 183 182 178 178 177 172 175 181 183 183 187 190 188 189 194 201 206 215 219 220 221 218 220 225 227 230 226 223 217 216 218 222 226 232 235
319 336 328 307 295 281 354 316 283 268 145 157 170 179 183 180 176 182 184 177 178 181 179 181 187 190 190 193 196 199 201 206 214 221 224 221 220 223 224 227 225 220 211 209 213 220 219 224 226
356 8 319 291 278 267 160 246 284 353 102 126 146 147 137 141 161 164 141 123 143 160 169 178 185 193 201 203 206 211 212 215 221 223 226 226 224 223 222 224 225 216 203 198 204 207 211 221 223
359 318 285 295 290 240 139 198 298 59 87 90 106 112 107 91 82 86 91 93 99 112 120 123 130 190 225 227 225 230 243 247 248 248 245 237 232 228 224 227 226 213 205 201 214 211 205 225 236
264 277 301 320 335 62 83 86 2 46 97 107 105 101 95 92 91 93 90 84 77 79 89 99 94 147 231 258 267 264 262 260 260 260 263 264 252 242 230 230 222 216 213 217 229 234 228 224 234
237 295 327 337 350 51 39 19 355 2 64 109 112 108 103 98 98 93 92 89 81 73 79 87 89 79 85 256 259 260 260 262 264 261 260 262 262 259 244 234 217 211 212 219 226 232 242 242 221
352 16 2 356 360 44 26 354 347 355 356 141 133 123 117 114 102 96 96 94 96 94 88 86 91 100 116 208 253 255 266 272 267 275 276 270 267 260 251 231 220 221 221 221 218 216 226 233 206
8 73 49 3 358 23 47 351 344 352 47 85 107 119 122 122 119 116 110 111 115 124 137 138 141 133 138 151 290 329 329 321 317 305 294 289 281 269 251 234 221 221 216 219 217 212 217 230 226
322 346 38 16 24 329 45 331 309 358 62 83 104 112 120 126 132 137 135 140 152 170 172 168 171 170 173 157 142 164 292 292 287 290 289 292 285 275 265 249 232 224 219 222 224 218 215 218 228
256 9 12 347 342 347 357 99 287 25 87 151 162 160 166 171 163 163 166 172 183 185 179 181 182 188 193 179 167 171 269 268 283 297 301 301 295 288 279 264 244 231 224 223 221 216 214 211 214
66 29 8 26 56 11 269 183 280 251 199 186 200 205 200 195 188 184 189 189 200 188 169 170 176 204 217 199 191 204 290 304 315 316 313 308 301 295 287 274 255 240 229 224 222 218 213 210 206
66 68 23 4 12 276 281 115 263 258 189 178 190 209 211 208 201 201 202 203 203 183 166 160 166 212 236 219 249 293 308 317 314 312 311 311 305 296 288 278 261 248 233 226 219 212 209 202 198
108 125 144 186 242 284 333 206 266 251 190 195 197 209 218 214 209 207 203 193 183 168 156 155 164 196 218 208 241 328 346 330 314 312 310 307 301 294 290 281 267 255 240 229 217 211 210 202 202
161 202 167 143 269 330 306 294 304 290 226 213 214 219 221 217 205 199 187 176 171 161 166 172 169 178 194 185 168 37 12 356 332 324 321 312 308 305 301 290 276 259 242 229 214 215 214 200 202
162 154 74 89 122 293 301 293 250 256 247 224 214 213 216 187 170 165 169 172 171 172 177 170 165 173 180 165 145 112 53 9 353 347 338 327 320 320 319 315 302 283 258 234 214 210 203 191 190
321 105 123 135 159 163 256 273 258 241 227 200 212 204 163 133 152 180 183 183 180 180 176 169 168 168 168 166 151 134 107 38 20 0 341 332 330 333 336 333 335 329 304 249 197 201 180 169 164
167 161 141 151 236 186 189 270 332 37 51 61 53 40 30 28 5 246 209 200 194 192 188 181 180 179 183 177 167 160 151 110 45 355 337 338 339 339 341 343 352 2 12 31 89 115 118 123 122